Simultaneous Nadir Overpasses (SNOs) Predictions

Prediction of SNOs between GOES-15 and METOP-A Satellite Orbit:

Table of predicted SNOs for the next 14.0 days since TLE Epoch: 1/24/2020
Index Date Time (GOES-15) GOES-15 Lat,Lon METOP-A Lat,Lon Distance(km) Time Diff (sec)
1 01/25/2020 17:27:14 -0.01,-128.35 0.04,-128.68 37.01 80
2 01/28/2020 05:25:34 0.00,-128.33 -0.02,-128.31 3.59 80
3 01/30/2020 17:21:07 0.00,-128.25 -0.08,-127.92 38.06 80
4 02/01/2020 05:40:07 -0.01,-128.24 -0.94,-132.55 489.92 80
5 02/02/2020 05:22:07 -0.00,-128.22 0.16,-127.56 75.03 80
6 02/03/2020 17:40:59 0.00,-128.16 0.90,-132.15 454.76 80
7 02/04/2020 17:17:39 0.00,-128.13 -0.21,-127.16 109.53 80
8 02/06/2020 05:36:39 -0.00,-128.10 -0.81,-131.79 420.00 80
9 02/07/2020 05:18:40 -0.01,-128.07 0.29,-126.81 144.27 80




NCC Satellite Simultaneous Nadir Overpasses (SNOs) Prediction Service
